Year,Month,Day,Hour,Minute,Value (Times are PST for temperature in C)
2009,09,24,00,00,13.70
2009,09,24,00,01,13.70
2009,09,24,00,02,13.70
2009,09,24,00,03,13.70
2009,09,24,00,04,13.70
2009,09,24,00,05,13.70
2009,09,24,00,06,13.60
2009,09,24,00,07,13.60
2009,09,24,00,08,13.60
2009,09,24,00,09,13.60
2009,09,24,00,10,13.60
2009,09,24,00,11,13.60
2009,09,24,00,12,13.50
2009,09,24,00,13,13.50
2009,09,24,00,14,13.50
2009,09,24,00,15,13.40
2009,09,24,00,16,13.40
2009,09,24,00,17,13.40
2009,09,24,00,18,13.40
2009,09,24,00,19,13.30
2009,09,24,00,20,13.30
2009,09,24,00,21,13.30
2009,09,24,00,22,13.30
2009,09,24,00,23,13.30
2009,09,24,00,24,13.30
2009,09,24,00,25,13.30
2009,09,24,00,26,13.30
2009,09,24,00,27,13.30
2009,09,24,00,28,13.30
2009,09,24,00,29,13.30
2009,09,24,00,30,13.30
2009,09,24,00,31,13.30
2009,09,24,00,32,13.30
2009,09,24,00,33,13.30
2009,09,24,00,34,13.30
2009,09,24,00,35,13.30
2009,09,24,00,36,13.30
2009,09,24,00,37,13.30
2009,09,24,00,38,13.30
2009,09,24,00,39,13.30
2009,09,24,00,40,13.30
2009,09,24,00,41,13.30
2009,09,24,00,42,13.30
2009,09,24,00,43,13.20
2009,09,24,00,44,13.20
2009,09,24,00,45,13.20
2009,09,24,00,46,13.20
2009,09,24,00,47,13.20
2009,09,24,00,48,13.20
2009,09,24,00,49,13.20
2009,09,24,00,50,13.20
2009,09,24,00,51,13.20
2009,09,24,00,52,13.30
2009,09,24,00,53,13.30
2009,09,24,00,54,13.30
2009,09,24,00,55,13.20
2009,09,24,00,56,13.20
2009,09,24,00,57,13.20
2009,09,24,00,58,13.20
2009,09,24,00,59,13.20
2009,09,24,01,00,13.20
2009,09,24,01,01,13.20
2009,09,24,01,02,13.20
2009,09,24,01,03,13.20
2009,09,24,01,04,13.20
2009,09,24,01,05,13.20
2009,09,24,01,06,13.20
2009,09,24,01,07,13.20
2009,09,24,01,08,13.20
2009,09,24,01,09,13.20
2009,09,24,01,10,13.20
2009,09,24,01,11,13.20
2009,09,24,01,12,13.20
2009,09,24,01,13,13.20
2009,09,24,01,14,13.20
2009,09,24,01,15,13.20
2009,09,24,01,16,13.20
2009,09,24,01,17,13.20
2009,09,24,01,18,13.20
2009,09,24,01,19,13.20
2009,09,24,01,20,13.20
2009,09,24,01,21,13.20
2009,09,24,01,22,13.20
2009,09,24,01,23,13.20
2009,09,24,01,24,13.20
2009,09,24,01,25,13.20
2009,09,24,01,26,13.20
2009,09,24,01,27,13.20
2009,09,24,01,28,13.20
2009,09,24,01,29,13.20
2009,09,24,01,30,13.20
2009,09,24,01,31,13.20
2009,09,24,01,32,13.20
2009,09,24,01,33,13.20
2009,09,24,01,34,13.20
2009,09,24,01,35,13.20
2009,09,24,01,36,13.20
2009,09,24,01,37,13.20
2009,09,24,01,38,13.20
2009,09,24,01,39,13.20
2009,09,24,01,40,13.20
2009,09,24,01,41,13.20
2009,09,24,01,42,13.20
2009,09,24,01,43,13.20
2009,09,24,01,44,13.20
2009,09,24,01,45,13.20
2009,09,24,01,46,13.10
2009,09,24,01,47,13.10
2009,09,24,01,48,13.10
2009,09,24,01,49,13.10
2009,09,24,01,50,13.10
2009,09,24,01,51,13.10
2009,09,24,01,52,13.10
2009,09,24,01,53,13.00
2009,09,24,01,54,13.00
2009,09,24,01,55,13.00
2009,09,24,01,56,13.00
2009,09,24,01,57,13.00
2009,09,24,01,58,13.00
2009,09,24,01,59,13.00
2009,09,24,02,00,13.00
2009,09,24,02,01,13.00
2009,09,24,02,02,12.90
2009,09,24,02,03,12.90
2009,09,24,02,04,12.90
2009,09,24,02,05,12.90
2009,09,24,02,06,12.90
2009,09,24,02,07,12.90
2009,09,24,02,08,12.90
2009,09,24,02,09,12.90
2009,09,24,02,10,12.90
2009,09,24,02,11,12.90
2009,09,24,02,12,12.90
2009,09,24,02,13,12.90
2009,09,24,02,14,12.90
2009,09,24,02,15,12.90
2009,09,24,02,16,12.90
2009,09,24,02,17,12.90
2009,09,24,02,18,12.90
2009,09,24,02,19,12.90
2009,09,24,02,20,12.80
2009,09,24,02,21,12.80
2009,09,24,02,22,12.80
2009,09,24,02,23,12.80
2009,09,24,02,24,12.80
2009,09,24,02,25,12.80
2009,09,24,02,26,12.80
2009,09,24,02,27,12.80
2009,09,24,02,28,12.80
2009,09,24,02,29,12.80
2009,09,24,02,30,12.80
2009,09,24,02,31,12.80
2009,09,24,02,32,12.80
2009,09,24,02,33,12.90
2009,09,24,02,34,12.90
2009,09,24,02,35,12.90
2009,09,24,02,36,12.90
2009,09,24,02,37,12.90
2009,09,24,02,38,12.80
2009,09,24,02,39,12.80
2009,09,24,02,40,12.80
2009,09,24,02,41,12.90
2009,09,24,02,42,12.90
2009,09,24,02,43,12.80
2009,09,24,02,44,12.80
2009,09,24,02,45,12.90
2009,09,24,02,46,12.90
2009,09,24,02,47,12.90
2009,09,24,02,48,12.80
2009,09,24,02,49,12.80
2009,09,24,02,50,12.80
2009,09,24,02,51,12.80
2009,09,24,02,52,12.80
2009,09,24,02,53,12.80
2009,09,24,02,54,12.80
2009,09,24,02,55,12.80
2009,09,24,02,56,12.80
2009,09,24,02,57,12.80
2009,09,24,02,58,12.80
2009,09,24,02,59,12.80
2009,09,24,03,00,12.80
2009,09,24,03,01,12.80
2009,09,24,03,02,12.80
2009,09,24,03,03,12.80
2009,09,24,03,04,12.80
2009,09,24,03,05,12.80
2009,09,24,03,06,12.80
2009,09,24,03,07,12.80
2009,09,24,03,08,12.80
2009,09,24,03,09,12.80
2009,09,24,03,10,12.80
2009,09,24,03,11,12.80
2009,09,24,03,12,12.80
2009,09,24,03,13,12.80
2009,09,24,03,14,12.80
2009,09,24,03,15,12.80
2009,09,24,03,16,12.80
2009,09,24,03,17,12.80
2009,09,24,03,18,12.80
2009,09,24,03,19,12.80
2009,09,24,03,20,12.80
2009,09,24,03,21,12.80
2009,09,24,03,22,12.80
2009,09,24,03,23,12.80
2009,09,24,03,24,12.80
2009,09,24,03,25,12.80
2009,09,24,03,26,12.80
2009,09,24,03,27,12.80
2009,09,24,03,28,12.80
2009,09,24,03,29,12.80
2009,09,24,03,30,12.80
2009,09,24,03,31,12.80
2009,09,24,03,32,12.80
2009,09,24,03,33,12.80
2009,09,24,03,34,12.80
2009,09,24,03,35,12.80
2009,09,24,03,36,12.80
2009,09,24,03,37,12.80
2009,09,24,03,38,12.80
2009,09,24,03,39,12.80
2009,09,24,03,40,12.80
2009,09,24,03,41,12.80
2009,09,24,03,42,12.80
2009,09,24,03,43,12.80
2009,09,24,03,44,12.80
2009,09,24,03,45,12.80
2009,09,24,03,46,12.80
2009,09,24,03,47,12.80
2009,09,24,03,48,12.80
2009,09,24,03,49,12.80
2009,09,24,03,50,12.80
2009,09,24,03,51,12.80
2009,09,24,03,52,12.80
2009,09,24,03,53,12.80
2009,09,24,03,54,12.80
2009,09,24,03,55,12.80
2009,09,24,03,56,12.80
2009,09,24,03,57,12.80
2009,09,24,03,58,12.80
2009,09,24,03,59,12.80
2009,09,24,04,00,12.80
2009,09,24,04,01,12.80
2009,09,24,04,02,12.80
2009,09,24,04,03,12.80
2009,09,24,04,04,12.80
2009,09,24,04,05,12.80
2009,09,24,04,06,12.80
2009,09,24,04,07,12.80
2009,09,24,04,08,12.80
2009,09,24,04,09,12.80
2009,09,24,04,10,12.80
2009,09,24,04,11,12.80
2009,09,24,04,12,12.80
2009,09,24,04,13,12.80
2009,09,24,04,14,12.80
2009,09,24,04,15,12.80
2009,09,24,04,16,12.80
2009,09,24,04,17,12.80
2009,09,24,04,18,12.80
2009,09,24,04,19,12.80
2009,09,24,04,20,12.80
2009,09,24,04,21,12.80
2009,09,24,04,22,12.80
2009,09,24,04,23,12.80
2009,09,24,04,24,12.80
2009,09,24,04,25,12.80
2009,09,24,04,26,12.80
2009,09,24,04,27,12.80
2009,09,24,04,28,12.80
2009,09,24,04,29,12.80
2009,09,24,04,30,12.80
2009,09,24,04,31,12.80
2009,09,24,04,32,12.80
2009,09,24,04,33,12.80
2009,09,24,04,34,12.80
2009,09,24,04,35,12.80
2009,09,24,04,36,12.80
2009,09,24,04,37,12.80
2009,09,24,04,38,12.80
2009,09,24,04,39,12.80
2009,09,24,04,40,12.80
2009,09,24,04,41,12.80
2009,09,24,04,42,12.80
2009,09,24,04,43,12.80
2009,09,24,04,44,12.80
2009,09,24,04,45,12.70
2009,09,24,04,46,12.70
2009,09,24,04,47,12.70
2009,09,24,04,48,12.70
2009,09,24,04,49,12.70
2009,09,24,04,50,12.70
2009,09,24,04,51,12.70
2009,09,24,04,52,12.70
2009,09,24,04,53,12.70
2009,09,24,04,54,12.70
2009,09,24,04,55,12.70
2009,09,24,04,56,12.70
2009,09,24,04,57,12.70
2009,09,24,04,58,12.70
2009,09,24,04,59,12.70
2009,09,24,05,00,12.70
2009,09,24,05,01,12.70
2009,09,24,05,02,12.70
2009,09,24,05,03,12.70
2009,09,24,05,04,12.70
2009,09,24,05,05,12.70
2009,09,24,05,06,12.70
2009,09,24,05,07,12.70
2009,09,24,05,08,12.70
2009,09,24,05,09,12.70
2009,09,24,05,10,12.70
2009,09,24,05,11,12.70
2009,09,24,05,12,12.70
2009,09,24,05,13,12.70
2009,09,24,05,14,12.70
2009,09,24,05,15,12.70
2009,09,24,05,16,12.70
2009,09,24,05,17,12.70
2009,09,24,05,18,12.70
2009,09,24,05,19,12.70
2009,09,24,05,20,12.70
2009,09,24,05,21,12.70
2009,09,24,05,22,12.70
2009,09,24,05,23,12.70
2009,09,24,05,24,12.70
2009,09,24,05,25,12.70
2009,09,24,05,26,12.70
2009,09,24,05,27,12.70
2009,09,24,05,28,12.70
2009,09,24,05,29,12.70
2009,09,24,05,30,12.70
2009,09,24,05,31,12.70
2009,09,24,05,32,12.60
2009,09,24,05,33,12.60
2009,09,24,05,34,12.60
2009,09,24,05,35,12.60
2009,09,24,05,36,12.60
2009,09,24,05,37,12.60
2009,09,24,05,38,12.60
2009,09,24,05,39,12.60
2009,09,24,05,40,12.60
2009,09,24,05,41,12.50
2009,09,24,05,42,12.50
2009,09,24,05,43,12.50
2009,09,24,05,44,12.50
2009,09,24,05,45,12.50
2009,09,24,05,46,12.50
2009,09,24,05,47,12.50
2009,09,24,05,48,12.50
2009,09,24,05,49,12.40
2009,09,24,05,50,12.40
2009,09,24,05,51,12.40
2009,09,24,05,52,12.40
2009,09,24,05,53,12.30
2009,09,24,05,54,12.30
2009,09,24,05,55,12.30
2009,09,24,05,56,12.30
2009,09,24,05,57,12.30
2009,09,24,05,58,12.30
2009,09,24,05,59,12.30
2009,09,24,06,00,12.30
2009,09,24,06,01,12.20
2009,09,24,06,02,12.20
2009,09,24,06,03,12.20
2009,09,24,06,04,12.10
2009,09,24,06,05,12.10
2009,09,24,06,06,12.10
2009,09,24,06,07,12.00
2009,09,24,06,08,12.00
2009,09,24,06,09,12.00
2009,09,24,06,10,11.90
2009,09,24,06,11,11.90
2009,09,24,06,12,11.90
2009,09,24,06,13,11.80
2009,09,24,06,14,11.80
2009,09,24,06,15,11.80
2009,09,24,06,16,11.80
2009,09,24,06,17,11.80
2009,09,24,06,18,11.80
2009,09,24,06,19,11.70
2009,09,24,06,20,11.70
2009,09,24,06,21,11.70
2009,09,24,06,22,11.60
2009,09,24,06,23,11.60
2009,09,24,06,24,11.60
2009,09,24,06,25,11.60
2009,09,24,06,26,11.60
2009,09,24,06,27,11.60
2009,09,24,06,28,11.50
2009,09,24,06,29,11.40
2009,09,24,06,30,11.40
2009,09,24,06,31,11.40
2009,09,24,06,32,11.40
2009,09,24,06,33,11.30
2009,09,24,06,34,11.30
2009,09,24,06,35,11.30
2009,09,24,06,36,11.20
2009,09,24,06,37,11.20
2009,09,24,06,38,11.20
2009,09,24,06,39,11.10
2009,09,24,06,40,11.10
2009,09,24,06,41,11.10
2009,09,24,06,42,11.10
2009,09,24,06,43,11.10
2009,09,24,06,44,11.10
2009,09,24,06,45,10.90
2009,09,24,06,46,10.90
2009,09,24,06,47,10.90
2009,09,24,06,48,11.00
2009,09,24,06,49,11.10
2009,09,24,06,50,11.10
2009,09,24,06,51,11.00
2009,09,24,06,52,10.90
2009,09,24,06,53,10.90
2009,09,24,06,54,10.90
2009,09,24,06,55,10.90
2009,09,24,06,56,10.90
2009,09,24,06,57,10.90
2009,09,24,06,58,10.90
2009,09,24,06,59,10.90
2009,09,24,07,00,10.90
2009,09,24,07,01,10.80
2009,09,24,07,02,10.80
2009,09,24,07,03,10.80
2009,09,24,07,04,10.80
2009,09,24,07,05,10.80
2009,09,24,07,06,10.70
2009,09,24,07,07,10.70
2009,09,24,07,08,10.70
2009,09,24,07,09,10.70
2009,09,24,07,10,10.70
2009,09,24,07,11,10.70
2009,09,24,07,12,10.70
2009,09,24,07,13,10.70
2009,09,24,07,14,10.70
2009,09,24,07,15,10.70
2009,09,24,07,16,10.70
2009,09,24,07,17,10.70
2009,09,24,07,18,10.70
2009,09,24,07,19,10.70
2009,09,24,07,20,10.60
2009,09,24,07,21,10.60
2009,09,24,07,22,10.60
2009,09,24,07,23,10.60
2009,09,24,07,24,10.60
2009,09,24,07,25,10.60
2009,09,24,07,26,10.60
2009,09,24,07,27,10.60
2009,09,24,07,28,10.60
2009,09,24,07,29,10.60
2009,09,24,07,30,10.60
2009,09,24,07,31,10.60
2009,09,24,07,32,10.60
2009,09,24,07,33,10.60
2009,09,24,07,34,10.60
2009,09,24,07,35,10.60
2009,09,24,07,36,10.60
2009,09,24,07,37,10.60
2009,09,24,07,38,10.60
2009,09,24,07,39,10.60
2009,09,24,07,40,10.60
2009,09,24,07,41,10.70
2009,09,24,07,42,10.70
2009,09,24,07,43,10.80
2009,09,24,07,44,10.80
2009,09,24,07,45,10.80
2009,09,24,07,46,10.90
2009,09,24,07,47,10.90
2009,09,24,07,48,10.90
2009,09,24,07,49,10.90
2009,09,24,07,50,10.90
2009,09,24,07,51,10.90
2009,09,24,07,52,10.90
2009,09,24,07,53,10.90
2009,09,24,07,54,10.90
2009,09,24,07,55,10.90
2009,09,24,07,56,10.90
2009,09,24,07,57,10.90
2009,09,24,07,58,11.00
2009,09,24,07,59,11.10
2009,09,24,08,00,11.10
2009,09,24,08,01,11.10
2009,09,24,08,02,11.10
2009,09,24,08,03,11.10
2009,09,24,08,04,11.20
2009,09,24,08,05,11.20
2009,09,24,08,06,11.20
2009,09,24,08,07,11.30
2009,09,24,08,08,11.30
2009,09,24,08,09,11.40
2009,09,24,08,10,11.40
2009,09,24,08,11,11.50
2009,09,24,08,12,11.60
2009,09,24,08,13,11.60
2009,09,24,08,14,11.60
2009,09,24,08,15,11.70
2009,09,24,08,16,11.70
2009,09,24,08,17,11.80
2009,09,24,08,18,11.80
2009,09,24,08,19,11.80
2009,09,24,08,20,11.80
2009,09,24,08,21,11.80
2009,09,24,08,22,11.80
2009,09,24,08,23,11.90
2009,09,24,08,24,11.90
2009,09,24,08,25,11.90
2009,09,24,08,26,11.90
2009,09,24,08,27,12.00
2009,09,24,08,28,12.00
2009,09,24,08,29,12.00
2009,09,24,08,30,12.00
2009,09,24,08,31,12.10
2009,09,24,08,32,12.10
2009,09,24,08,33,12.10
2009,09,24,08,34,12.10
2009,09,24,08,35,12.10
2009,09,24,08,36,12.20
2009,09,24,08,37,12.20
2009,09,24,08,38,12.30
2009,09,24,08,39,12.30
2009,09,24,08,40,12.30
2009,09,24,08,41,12.30
2009,09,24,08,42,12.30
2009,09,24,08,43,12.30
2009,09,24,08,44,12.40
2009,09,24,08,45,12.40
2009,09,24,08,46,12.50
2009,09,24,08,47,12.50
2009,09,24,08,48,12.60
2009,09,24,08,49,12.60
2009,09,24,08,50,12.70
2009,09,24,08,51,12.80
2009,09,24,08,52,12.80
2009,09,24,08,53,12.80
2009,09,24,08,54,12.90
2009,09,24,08,55,12.90
2009,09,24,08,56,13.00
2009,09,24,08,57,13.00
2009,09,24,08,58,13.10
2009,09,24,08,59,13.10
2009,09,24,09,00,13.20
2009,09,24,09,01,13.30
2009,09,24,09,02,13.40
2009,09,24,09,03,13.50
2009,09,24,09,04,13.50
2009,09,24,09,05,13.60
2009,09,24,09,06,13.70
2009,09,24,09,07,13.70
2009,09,24,09,08,13.80
2009,09,24,09,09,13.80
2009,09,24,09,10,13.90
2009,09,24,09,11,14.00
2009,09,24,09,12,14.00
2009,09,24,09,13,14.10
2009,09,24,09,14,14.20
2009,09,24,09,15,14.20
2009,09,24,09,16,14.30
2009,09,24,09,17,14.30
2009,09,24,09,18,14.40
2009,09,24,09,19,14.50
2009,09,24,09,20,14.60
2009,09,24,09,21,14.60
2009,09,24,09,22,14.60
2009,09,24,09,23,14.60
2009,09,24,09,24,14.60
2009,09,24,09,25,14.60
2009,09,24,09,26,14.70
2009,09,24,09,27,14.80
2009,09,24,09,28,14.90
2009,09,24,09,29,14.90
2009,09,24,09,30,14.90
2009,09,24,09,31,14.90
2009,09,24,09,32,14.90
2009,09,24,09,33,14.90
2009,09,24,09,34,14.90
2009,09,24,09,35,14.90
2009,09,24,09,36,14.90
2009,09,24,09,37,14.90
2009,09,24,09,38,14.90
2009,09,24,09,39,14.90
2009,09,24,09,40,15.00
2009,09,24,09,41,15.10
2009,09,24,09,42,15.20
2009,09,24,09,43,15.20
2009,09,24,09,44,15.30
2009,09,24,09,45,15.30
2009,09,24,09,46,15.30
2009,09,24,09,47,15.40
2009,09,24,09,48,15.50
2009,09,24,09,49,15.60
2009,09,24,09,50,15.60
2009,09,24,09,51,15.70
2009,09,24,09,52,15.70
2009,09,24,09,53,15.70
2009,09,24,09,54,15.70
2009,09,24,09,55,15.70
2009,09,24,09,56,15.70
2009,09,24,09,57,15.70
2009,09,24,09,58,15.80
2009,09,24,09,59,15.80
2009,09,24,10,00,15.70
2009,09,24,10,01,15.80
2009,09,24,10,02,15.80
2009,09,24,10,03,15.80
2009,09,24,10,04,15.90
2009,09,24,10,05,15.90
2009,09,24,10,06,16.00
2009,09,24,10,07,16.10
2009,09,24,10,08,16.10
2009,09,24,10,09,16.00
2009,09,24,10,10,15.90
2009,09,24,10,11,15.90
2009,09,24,10,12,15.80
2009,09,24,10,13,15.80
2009,09,24,10,14,15.80
2009,09,24,10,15,15.80
2009,09,24,10,16,15.80
2009,09,24,10,17,15.80
2009,09,24,10,18,15.70
2009,09,24,10,19,15.50
2009,09,24,10,20,15.40
2009,09,24,10,21,15.30
2009,09,24,10,22,15.20
2009,09,24,10,23,15.20
2009,09,24,10,24,15.20
2009,09,24,10,25,15.30
2009,09,24,10,26,15.30
2009,09,24,10,27,15.40
2009,09,24,10,28,15.50
2009,09,24,10,29,15.40
2009,09,24,10,30,15.30
2009,09,24,10,31,15.20
2009,09,24,10,32,15.20
2009,09,24,10,33,15.20
2009,09,24,10,34,15.10
2009,09,24,10,35,15.10
2009,09,24,10,36,15.10
2009,09,24,10,37,15.10
2009,09,24,10,38,15.20
2009,09,24,10,39,15.20
2009,09,24,10,40,15.30
2009,09,24,10,41,15.30
2009,09,24,10,42,15.30
2009,09,24,10,43,15.20
2009,09,24,10,44,15.10
2009,09,24,10,45,15.10
2009,09,24,10,46,15.10
2009,09,24,10,47,15.10
2009,09,24,10,48,15.00
2009,09,24,10,49,15.10
2009,09,24,10,50,15.10
2009,09,24,10,51,15.10
2009,09,24,10,52,15.20
2009,09,24,10,53,15.10
2009,09,24,10,54,15.10
2009,09,24,10,55,15.10
2009,09,24,10,56,15.10
2009,09,24,10,57,15.20
2009,09,24,10,58,15.30
2009,09,24,10,59,15.20
2009,09,24,11,00,15.10
2009,09,24,11,01,15.10
2009,09,24,11,02,15.00
2009,09,24,11,03,15.00
2009,09,24,11,04,14.90
2009,09,24,11,05,14.90
2009,09,24,11,06,14.90
2009,09,24,11,07,14.80
2009,09,24,11,08,14.90
2009,09,24,11,09,14.90
2009,09,24,11,10,14.90
2009,09,24,11,11,14.90
2009,09,24,11,12,14.90
2009,09,24,11,13,15.10
2009,09,24,11,14,15.10
2009,09,24,11,15,15.20
2009,09,24,11,16,15.20
2009,09,24,11,17,15.20
2009,09,24,11,18,15.30
2009,09,24,11,19,15.40
2009,09,24,11,20,15.40
2009,09,24,11,21,15.50
2009,09,24,11,22,15.50
2009,09,24,11,23,15.50
2009,09,24,11,24,15.60
2009,09,24,11,25,15.70
2009,09,24,11,26,15.70
2009,09,24,11,27,15.70
2009,09,24,11,28,15.80
2009,09,24,11,29,15.90
2009,09,24,11,30,15.90
2009,09,24,11,31,16.00
2009,09,24,11,32,16.10
2009,09,24,11,33,16.10
2009,09,24,11,34,16.10
2009,09,24,11,35,16.30
2009,09,24,11,36,16.40
2009,09,24,11,37,16.50
2009,09,24,11,38,16.60
2009,09,24,11,39,16.50
2009,09,24,11,40,16.40
2009,09,24,11,41,16.30
2009,09,24,11,42,16.30
2009,09,24,11,43,16.40
2009,09,24,11,44,16.40
2009,09,24,11,45,16.40
2009,09,24,11,46,16.40
2009,09,24,11,47,16.40
2009,09,24,11,48,16.40
2009,09,24,11,49,16.40
2009,09,24,11,50,16.40
2009,09,24,11,51,16.40
2009,09,24,11,52,16.40
2009,09,24,11,53,16.40
2009,09,24,11,54,16.50
2009,09,24,11,55,16.60
2009,09,24,11,56,16.70
2009,09,24,11,57,16.70
2009,09,24,11,58,16.70
2009,09,24,11,59,16.80
2009,09,24,12,00,16.80
2009,09,24,12,01,16.70
2009,09,24,12,02,16.70
2009,09,24,12,03,16.70
2009,09,24,12,04,16.70
2009,09,24,12,05,16.70
2009,09,24,12,06,16.70
2009,09,24,12,07,16.70
2009,09,24,12,08,16.70
2009,09,24,12,09,16.80
2009,09,24,12,10,16.90
2009,09,24,12,11,16.90
2009,09,24,12,12,17.00
2009,09,24,12,13,17.00
2009,09,24,12,14,17.00
2009,09,24,12,15,17.00
2009,09,24,12,16,17.00
2009,09,24,12,17,17.00
2009,09,24,12,18,17.10
2009,09,24,12,19,17.30
2009,09,24,12,20,17.20
2009,09,24,12,21,17.20
2009,09,24,12,22,17.10
2009,09,24,12,23,17.00
2009,09,24,12,24,16.90
2009,09,24,12,25,16.80
2009,09,24,12,26,16.90
2009,09,24,12,27,17.00
2009,09,24,12,28,17.10
2009,09,24,12,29,17.20
2009,09,24,12,30,17.20
2009,09,24,12,31,17.30
2009,09,24,12,32,17.40
2009,09,24,12,33,17.40
2009,09,24,12,34,17.50
2009,09,24,12,35,17.50
2009,09,24,12,36,17.40
2009,09,24,12,37,17.40
2009,09,24,12,38,17.40
2009,09,24,12,39,17.50
2009,09,24,12,40,17.50
2009,09,24,12,41,17.40
2009,09,24,12,42,17.40
2009,09,24,12,43,17.40
2009,09,24,12,44,17.40
2009,09,24,12,45,17.40
2009,09,24,12,46,17.30
2009,09,24,12,47,17.30
2009,09,24,12,48,17.20
2009,09,24,12,49,17.00
2009,09,24,12,50,16.90
2009,09,24,12,51,16.90
2009,09,24,12,52,17.00
2009,09,24,12,53,17.00
2009,09,24,12,54,17.10
2009,09,24,12,55,17.20
2009,09,24,12,56,17.20
2009,09,24,12,57,17.20
2009,09,24,12,58,17.20
2009,09,24,12,59,17.20
2009,09,24,13,00,17.20
2009,09,24,13,01,17.20
2009,09,24,13,02,17.10
2009,09,24,13,03,17.00
2009,09,24,13,04,16.90
2009,09,24,13,05,16.90
2009,09,24,13,06,16.90
2009,09,24,13,07,17.00
2009,09,24,13,08,17.00
2009,09,24,13,09,16.90
2009,09,24,13,10,16.90
2009,09,24,13,11,16.90
2009,09,24,13,12,16.90
2009,09,24,13,13,16.90
2009,09,24,13,14,16.90
2009,09,24,13,15,17.10
2009,09,24,13,16,17.10
2009,09,24,13,17,17.00
2009,09,24,13,18,16.80
2009,09,24,13,19,16.70
2009,09,24,13,20,16.70
2009,09,24,13,21,16.60
2009,09,24,13,22,16.60
2009,09,24,13,23,16.60
2009,09,24,13,24,16.60
2009,09,24,13,25,16.70
2009,09,24,13,26,16.80
2009,09,24,13,27,16.90
2009,09,24,13,28,16.90
2009,09,24,13,29,17.00
2009,09,24,13,30,17.00
2009,09,24,13,31,17.10
2009,09,24,13,32,17.00
2009,09,24,13,33,17.10
2009,09,24,13,34,17.20
2009,09,24,13,35,17.30
2009,09,24,13,36,17.30
2009,09,24,13,37,17.30
2009,09,24,13,38,17.30
2009,09,24,13,39,17.30
2009,09,24,13,40,17.30
2009,09,24,13,41,17.30
2009,09,24,13,42,17.30
2009,09,24,13,43,17.30
2009,09,24,13,44,17.20
2009,09,24,13,45,17.10
2009,09,24,13,46,17.10
2009,09,24,13,47,17.30
2009,09,24,13,48,17.30
2009,09,24,13,49,17.30
2009,09,24,13,50,17.30
2009,09,24,13,51,17.30
2009,09,24,13,52,17.30
2009,09,24,13,53,17.30
2009,09,24,13,54,17.30
2009,09,24,13,55,17.30
2009,09,24,13,56,17.40
2009,09,24,13,57,17.40
2009,09,24,13,58,17.50
2009,09,24,13,59,17.70
2009,09,24,14,00,17.80
2009,09,24,14,01,17.80
2009,09,24,14,02,17.90
2009,09,24,14,03,17.90
2009,09,24,14,04,17.90
2009,09,24,14,05,17.80
2009,09,24,14,06,17.70
2009,09,24,14,07,17.70
2009,09,24,14,08,17.60
2009,09,24,14,09,17.60
2009,09,24,14,10,17.70
2009,09,24,14,11,17.80
2009,09,24,14,12,17.80
2009,09,24,14,13,17.70
2009,09,24,14,14,17.60
2009,09,24,14,15,17.60
2009,09,24,14,16,17.50
2009,09,24,14,17,17.50
2009,09,24,14,18,17.60
2009,09,24,14,19,17.60
2009,09,24,14,20,17.70
2009,09,24,14,21,17.70
2009,09,24,14,22,17.80
2009,09,24,14,23,17.70
2009,09,24,14,24,17.70
2009,09,24,14,25,17.70
2009,09,24,14,26,17.60
2009,09,24,14,27,17.50
2009,09,24,14,28,17.60
2009,09,24,14,29,17.70
2009,09,24,14,30,17.80
2009,09,24,14,31,17.90
2009,09,24,14,32,18.00
2009,09,24,14,33,18.10
2009,09,24,14,34,18.00
2009,09,24,14,35,17.90
2009,09,24,14,36,17.70
2009,09,24,14,37,17.50
2009,09,24,14,38,17.40
2009,09,24,14,39,17.40
2009,09,24,14,40,17.40
2009,09,24,14,41,17.30
2009,09,24,14,42,17.30
2009,09,24,14,43,17.20
2009,09,24,14,44,17.00
2009,09,24,14,45,17.00
2009,09,24,14,46,17.00
2009,09,24,14,47,16.90
2009,09,24,14,48,16.90
2009,09,24,14,49,17.00
2009,09,24,14,50,17.10
2009,09,24,14,51,17.20
2009,09,24,14,52,17.10
2009,09,24,14,53,17.00
2009,09,24,14,54,16.90
2009,09,24,14,55,16.80
2009,09,24,14,56,16.80
2009,09,24,14,57,16.80
2009,09,24,14,58,16.90
2009,09,24,14,59,17.00
2009,09,24,15,00,17.00
2009,09,24,15,01,17.00
2009,09,24,15,02,17.00
2009,09,24,15,03,16.90
2009,09,24,15,04,17.00
2009,09,24,15,05,17.10
2009,09,24,15,06,17.20
2009,09,24,15,07,17.30
2009,09,24,15,08,17.30
2009,09,24,15,09,17.30
2009,09,24,15,10,17.30
2009,09,24,15,11,17.30
2009,09,24,15,12,17.30
2009,09,24,15,13,17.30
2009,09,24,15,14,17.30
2009,09,24,15,15,17.30
2009,09,24,15,16,17.30
2009,09,24,15,17,17.30
2009,09,24,15,18,17.30
2009,09,24,15,19,17.30
2009,09,24,15,20,17.30
2009,09,24,15,21,17.30
2009,09,24,15,22,17.30
2009,09,24,15,23,17.30
2009,09,24,15,24,17.30
2009,09,24,15,25,17.30
2009,09,24,15,26,17.30
2009,09,24,15,27,17.30
2009,09,24,15,28,17.30
2009,09,24,15,29,17.30
2009,09,24,15,30,17.30
2009,09,24,15,31,17.20
2009,09,24,15,32,17.10
2009,09,24,15,33,17.10
2009,09,24,15,34,17.20
2009,09,24,15,35,17.30
2009,09,24,15,36,17.40
2009,09,24,15,37,17.40
2009,09,24,15,38,17.50
2009,09,24,15,39,17.50
2009,09,24,15,40,17.60
2009,09,24,15,41,17.60
2009,09,24,15,42,17.50
2009,09,24,15,43,17.60
2009,09,24,15,44,17.60
2009,09,24,15,45,17.50
2009,09,24,15,46,17.50
2009,09,24,15,47,17.50
2009,09,24,15,48,17.50
2009,09,24,15,49,17.60
2009,09,24,15,50,17.70
2009,09,24,15,51,17.80
2009,09,24,15,52,18.00
2009,09,24,15,53,18.10
2009,09,24,15,54,17.90
2009,09,24,15,55,17.80
2009,09,24,15,56,17.70
2009,09,24,15,57,17.60
2009,09,24,15,58,17.60
2009,09,24,15,59,17.60
2009,09,24,16,00,17.70
2009,09,24,16,01,17.70
2009,09,24,16,02,17.60
2009,09,24,16,03,17.50
2009,09,24,16,04,17.30
2009,09,24,16,05,17.30
2009,09,24,16,06,17.30
2009,09,24,16,07,17.30
2009,09,24,16,08,17.30
2009,09,24,16,09,17.30
2009,09,24,16,10,17.30
2009,09,24,16,11,17.30
2009,09,24,16,12,17.40
2009,09,24,16,13,17.40
2009,09,24,16,14,17.50
2009,09,24,16,15,17.60
2009,09,24,16,16,17.60
2009,09,24,16,17,17.70
2009,09,24,16,18,17.70
2009,09,24,16,19,17.70
2009,09,24,16,20,17.70
2009,09,24,16,21,17.80
2009,09,24,16,22,17.80
2009,09,24,16,23,17.80
2009,09,24,16,24,17.80
2009,09,24,16,25,17.70
2009,09,24,16,26,17.70
2009,09,24,16,27,17.70
2009,09,24,16,28,17.70
2009,09,24,16,29,17.70
2009,09,24,16,30,17.70
2009,09,24,16,31,17.50
2009,09,24,16,32,17.50
2009,09,24,16,33,17.50
2009,09,24,16,34,17.40
2009,09,24,16,35,17.40
2009,09,24,16,36,17.40
2009,09,24,16,37,17.50
2009,09,24,16,38,17.50
2009,09,24,16,39,17.60
2009,09,24,16,40,17.60
2009,09,24,16,41,17.70
2009,09,24,16,42,17.70
2009,09,24,16,43,17.80
2009,09,24,16,44,17.80
2009,09,24,16,45,17.70
2009,09,24,16,46,17.60
2009,09,24,16,47,17.40
2009,09,24,16,48,17.30
2009,09,24,16,49,17.30
2009,09,24,16,50,17.20
2009,09,24,16,51,17.10
2009,09,24,16,52,17.10
2009,09,24,16,53,17.10
2009,09,24,16,54,17.10
2009,09,24,16,55,17.00
2009,09,24,16,56,17.00
2009,09,24,16,57,16.90
2009,09,24,16,58,16.80
2009,09,24,16,59,16.80
2009,09,24,17,00,16.80
2009,09,24,17,01,16.90
2009,09,24,17,02,16.90
2009,09,24,17,03,17.00
2009,09,24,17,04,17.00
2009,09,24,17,05,17.10
2009,09,24,17,06,17.10
2009,09,24,17,07,17.20
2009,09,24,17,08,17.30
2009,09,24,17,09,17.30
2009,09,24,17,10,17.30
2009,09,24,17,11,17.40
2009,09,24,17,12,17.50
2009,09,24,17,13,17.60
2009,09,24,17,14,17.70
2009,09,24,17,15,17.80
2009,09,24,17,16,17.90
2009,09,24,17,17,17.90
2009,09,24,17,18,17.90
2009,09,24,17,19,18.00